Regional Weather Roundup
Issued by NWS

Home | Current Version | Previous Version | Graphics & Text | Print | Product List | Glossary On
Versions: 1 2 3 4 5 6 7 8 9 10 11 12 13 14 15 16 17 18 19 20 21 22 23 24 25 26 27 28 29 30 31 32 33 34 35 36 37 38 39 40 41 42 43 44 45 46 47 48 49 50
000
ASUS43 KLOT 312000
RWRIL

ILLINOIS REGIONAL WEATHER ROUNDUP
NATIONAL WEATHER SERVICE CHICAGO/ROMEOVILLE IL
300 PM CDT FRI OCT 31 2014

NOTE: "FAIR" INDICATES FEW OR NO CLOUDS BELOW 12,000 FEET WITH NO
SIGNIFICANT WEATHER AND/OR OBSTRUCTIONS TO VISIBILITY.

* THESE STATIONS ARE NOT UNDER NWS QUALITY CONTROL. THEY ALSO MAY NOT
  REPORT WEATHER SUCH AS PRECIPITATION OR FOG.

ILZ001-002-007-009-015-016-024-312100-
NORTHWEST ILLINOIS

CITY           SKY/WX    TMP DP  RH WIND       PRES   REMARKS
MOLINE         SUNNY     45  20  36 N17G23    30.33S
STERLING*      MOSUNNY   43  19  39 N18G29    30.32R
SAVANNA*       MOSUNNY   44  17  34 N21G29    30.33S
$$

ILZ003-004-008-010-011-017-018-312100-
NORTH CENTRAL ILLINOIS

CITY           SKY/WX    TMP DP  RH WIND       PRES   REMARKS
ROCKFORD       CLOUDY    39  19  44 N26G39    30.32R WCI  28
FREEPORT*      PTSUNNY   38  18  43 N22G29    30.33F WCI  28
ROCHELLE*      PTSUNNY   40  20  46 N29       30.29R
DE KALB*       CLOUDY    38  20  49 N22G36    30.26R WCI  27
$$

ILZ005-006-012>014-019>023-312100-
NORTHEAST ILLINOIS

CITY           SKY/WX    TMP DP  RH WIND       PRES   REMARKS
CHICAGO-OHARE  CLOUDY    39  23  52 N26G37    30.19R WCI  28
CHICAGO-MIDWAY LGT SNOW  39  30  70 N25G38    30.18R WCI  28
AURORA         CLOUDY    41  20  43 N31G44    30.22R
LANSING*       LGT RAIN  38  33  81 N16G33    30.14R WCI  29
WAUKEGAN       CLOUDY    37  23  56 N25G37    30.21R WCI  25
DUPAGE AIRPORT CLOUDY    39  21  48 N32G44    30.22R WCI  27
WHEELING       CLOUDY    40  22  48 N30G45    30.23R
MORRIS*        CLOUDY    41  24  51 N17G32    30.21R
NORTHERLY ISL    N/A     40  34  79 NW26        N/A
$$

LMZ740>746-312100-
SOUTHERN LAKE MICHIGAN

STATION/POSITION SKY/WX   TEMP    WIND        PRES    VSBY  WAVE
                          AIR SEA DIR/SP/G                  HT/PER
                          (F)     (DEG/KT/KT) (MB)    (MI)  (FT/S)
SOUTHERN BUOY              38 48  360/ 35/ 43 1019.8R        17/11
WAUKEGAN HARBOR            38     350/ 25/ 38   N/A
HARRISON CRIB              40     340/ 46/ 58   N/A
BURNHAM HARBOR             40     330/ 29/ 35   N/A
CALUMET HARBOR             40     330/ 30/ 46 1019.4R
MICHIGAN CITY              39     350/ 47/ 53   N/A
$$

ILZ025>027-034>036-040-047-049-050-058-095>099-312100-
WEST-CENTRAL ILLINOIS

CITY           SKY/WX    TMP DP  RH WIND       PRES   REMARKS
QUINCY         SUNNY     44  19  36 N20G30    30.34S
GALESBURG*     SUNNY     43  21  42 N25G32    30.32R
MACOMB*        MOSUNNY   44  20  38 N22G32    30.35R
$$

ILZ028>032-037-038-041>044-048-051>054-059>061-312100-
CENTRAL ILLINOIS

CITY           SKY/WX    TMP DP  RH WIND       PRES   REMARKS
PONTIAC        CLOUDY    42  24  50 N30G37    30.23R
DECATUR        CLOUDY    42  24  49 NW26G37   30.22R
PEORIA         MOSUNNY   45  20  36 N20G30    30.28R
LINCOLN*       PTSUNNY   46  22  38 N16G28    30.24S
SPRINGFIELD    MOSUNNY   47  21  35 N23G38    30.26S
TAYLORVILLE    NOT AVBL
$$

ILZ033-039-045-046-055>057-062-063-312100-
EAST-CENTRAL ILLINOIS

CITY           SKY/WX    TMP DP  RH WIND       PRES   REMARKS
CHAMPAIGN      PTSUNNY   43  26  51 NW30G38   30.16S
MATTOON        CLOUDY    42  26  53 N26G38    30.16R
$$

ILZ079-100>102-312100-
SOUTHWEST ILLINOIS

CITY           SKY/WX    TMP DP  RH WIND       PRES   REMARKS
BELLEVILLE     SUNNY     46  25  44 NW20G35   30.26S
CAHOKIA*       MOSUNNY   48  26  42 N21G28    30.28F
SPARTA*        PTSUNNY   44  26  48 NW18G29   30.26R
$$

ILZ064>066-069>071-074>076-080>082-084>086-088>090-092>094-312100-
SOUTH-CENTRAL ILLINOIS

CITY           SKY/WX    TMP DP  RH WIND       PRES   REMARKS
CARBONDALE     PTSUNNY   47  25  42 N25G36    30.22R
CAIRO*         SUNNY     52  25  35 NW24G30   30.19S
MARION         PTSUNNY   46  25  42 MISG      30.21R
MT. VERNON     CLOUDY    43  25  49 N10G21    30.22R
SALEM*         PTSUNNY   46  29  50 NW21G30   30.22S
METROPOLIS*    SUNNY     48  25  40 N24G32    30.17R
$$

ILZ067-068-072-073-078-083-087-091-312100-
SOUTHEAST ILLINOIS

CITY           SKY/WX    TMP DP  RH WIND       PRES   REMARKS
LAWRENCEVILLE  CLOUDY    44  28  53 NW31G43   30.13S
FLORA*         MOSUNNY   43  26  51 N22G32    30.19S
FAIRFIELD*     CLOUDY    44  28  53 NW12G25   30.18R
HARRISBURG*    CLOUDY    45  27  49 NW22G31   30.20S
ROBINSON*      CLOUDY    44  30  57 N18G35    30.14R
CARMI*         PTSUNNY   46  32  58 NW23G31   30.16S
$$

ABBREVIATIONS USED IN REMARKS
   TC - TEMPERATURE IN CELSIUS
  WCI - WIND CHILL INDEX
   HX - HEAT INDEX
  VSB - VISIBILITY
$$




USA.gov is the U.S. government's official web portal to all federal, state and local government web resources and services.